Location: Pl�tzky
(52.0521°N, 11.8020°E)
Time: 00:54:43
(UTC+00:00)

USA 229 - Pass Details

Date: 28 February 2020
Orbit: 986 x 1226 km, 63.4° (Epoch: 26 March)

Event Time Altitude Azimuth Distance (km) Brightness Sun altitude
Rises 18:24:09 0° 256° (WSW) 3,753 7.9 -15.3°
Reaches altitude 10° 18:26:51 10° 263° (W) 2,830 7.2 -15.7°
Maximum altitude 18:33:13 45° 335° (NNW) 1,439 4.6 -16.7°
Drops below altitude 10° 18:39:58 10° 47° (NE) 2,998 5.7 -17.7°
Enters shadow 18:40:28 - 48° (NE) 3,164 5.8 -17.8°
